Wind_Speed
3 4 6 7 6 6 5 6 7 7 7 7 8 8 8 8 8 9 10 12 14 14 14 15 14 14 12 12 13 14 16 17 17 16 16 15 15 16 17 17 18 18 19 20 19 17 16 15 16 16 16 16 16 15 14 13 13 11 10 10 10 10 9 9 8 8 8 8 8 8 9 9 9 9 7 7 7 6 5 5 5 3 2 1 1
4 5 7 8 6 5 4 4 5 6 6 6 7 7 8 8 8 9 9 11 13 15 16 17 16 16 14 12 13 14 15 17 18 18 17 17 17 16 17 17 18 18 19 20 19 18 16 16 16 16 16 16 16 15 14 14 13 12 10 10 10 10 9 9 9 8 8 8 8 9 9 9 9 9 8 7 7 6 5 5 4 3 2 1 1
6 8 9 10 8 5 4 4 4 5 5 4 5 5 6 7 8 9 10 10 11 13 15 17 17 17 16 14 14 15 16 17 19 20 19 18 18 17 16 17 17 18 19 20 19 18 17 16 16 16 15 15 16 15 14 14 14 12 11 10 10 10 9 9 9 9 9 9 9 9 9 10 10 9 8 8 7 6 5 5 4 4 3 2 2
9 10 11 11 10 8 6 5 5 5 5 4 4 5 6 7 8 9 10 11 12 13 14 16 17 18 17 15 15 16 17 17 19 20 20 19 18 18 18 17 17 18 19 20 19 18 17 17 16 16 15 15 16 16 15 15 14 13 11 10 10 10 10 9 9 9 9 9 9 10 10 10 10 9 8 8 7 6 6 5 5 4 3 2 4
11 10 11 12 12 10 9 8 8 8 7 7 6 7 7 8 8 9 11 12 13 14 15 16 17 18 18 17 17 17 17 17 19 20 21 20 19 19 19 18 17 17 19 20 19 17 17 17 17 16 16 16 16 17 16 15 15 13 12 11 10 11 11 10 10 9 10 10 10 10 10 10 10 9 8 8 7 6 6 6 5 5 3 3 4
10 10 11 12 12 11 11 11 10 10 10 10 9 9 9 10 11 12 13 13 14 15 16 17 18 19 20 19 18 18 18 18 19 20 19 19 20 21 20 19 18 17 18 19 19 18 17 17 17 17 16 16 17 18 17 16 15 14 12 11 11 11 11 11 11 10 10 10 11 11 11 11 10 9 8 8 7 6 6 6 6 5 4 3 4
11 11 11 12 12 12 13 13 13 13 12 12 12 12 12 13 14 15 16 17 17 17 16 16 17 18 19 19 18 18 19 20 21 21 19 19 20 20 20 20 20 19 18 19 20 19 18 17 17 17 17 16 17 18 19 18 16 15 13 12 12 12 12 12 12 11 11 11 11 12 12 11 10 9 9 8 7 6 7 7 6 5 4 4 4
11 11 12 13 14 14 15 15 15 14 13 13 13 13 14 15 16 17 18 18 19 19 18 17 17 17 18 19 18 18 20 21 22 22 22 22 21 20 21 22 23 22 20 20 21 20 18 18 17 17 17 17 17 18 19 19 17 16 14 13 13 13 13 13 13 13 12 12 12 12 12 12 11 10 9 8 7 7 7 7 6 5 4 4 3
12 13 14 15 15 15 16 15 15 14 14 14 14 14 14 15 16 16 17 18 19 19 19 18 18 18 18 19 19 19 20 21 21 22 23 25 25 25 26 26 24 23 21 20 21 20 19 18 18 17 18 18 18 18 19 19 18 17 16 15 14 13 14 14 14 13 13 13 13 13 12 12 11 10 9 8 8 8 8 8 7 6 4 3 2
13 14 14 15 16 16 16 15 14 14 15 15 15 14 14 14 15 16 17 18 19 20 19 19 18 19 19 19 19 20 21 22 22 22 23 24 26 27 27 28 26 24 22 21 20 20 19 19 18 18 18 19 18 18 19 19 19 18 17 16 15 14 14 14 14 13 13 13 13 13 13 12 12 11 10 9 8 8 9 9 8 6 5 3 2
15 15 16 16 16 17 16 15 15 15 17 17 16 16 16 16 16 16 16 18 19 20 20 20 20 20 21 21 20 19 21 22 22 22 22 24 25 25 25 27 27 26 24 22 21 21 20 20 20 19 19 20 19 18 18 19 19 18 17 16 16 15 15 15 14 14 13 14 14 14 13 13 12 11 10 9 9 9 10 10 9 7 5 4 3
16 17 17 18 18 18 17 16 16 17 17 17 17 17 17 17 17 18 18 19 20 20 19 20 20 21 23 23 22 21 21 22 22 23 23 24 25 25 25 26 26 26 26 25 25 24 23 23 22 20 20 21 20 19 19 19 19 19 17 16 16 16 15 15 15 15 14 14 14 14 14 13 12 12 11 10 10 10 11 11 9 8 6 5 5
17 18 19 19 20 20 19 18 18 18 18 17 17 17 17 17 17 18 18 19 21 21 20 19 20 21 22 22 22 23 23 23 23 24 24 25 25 25 26 27 27 27 28 29 29 27 26 26 24 22 21 22 22 20 19 19 19 19 18 17 17 16 16 16 16 16 15 15 15 15 15 14 13 12 11 10 11 11 12 12 10 9 7 7 6
18 18 19 20 21 22 22 20 19 19 19 19 19 19 19 19 20 19 18 19 21 23 23 22 21 21 21 21 22 23 23 23 24 26 27 27 26 26 26 26 28 28 28 30 30 29 28 29 27 24 23 23 23 21 19 20 20 19 18 18 18 17 17 17 17 17 16 16 16 16 15 14 13 13 12 11 12 12 12 13 12 10 9 8 8
19 20 20 21 22 23 24 24 22 21 22 22 22 22 21 22 22 22 21 20 21 23 24 23 23 23 24 23 23 24 24 24 25 26 27 28 27 27 27 27 28 28 27 26 28 29 30 31 29 26 25 25 25 23 20 20 20 20 19 19 19 18 18 18 18 18 17 17 17 17 16 15 14 13 13 12 12 13 13 14 13 11 10 10 9
21 21 22 22 22 23 25 26 25 24 24 24 24 24 24 24 24 24 23 22 22 23 24 24 24 24 25 24 24 25 25 27 28 27 27 28 28 29 28 28 28 29 29 28 28 30 31 31 30 27 26 26 25 24 22 21 21 21 21 20 20 20 19 19 19 18 18 18 18 17 17 16 15 14 14 13 13 14 14 14 14 12 11 11 11
23 23 23 23 22 23 25 26 27 26 25 25 25 25 25 26 26 25 24 24 23 23 24 25 25 25 25 26 26 25 25 27 29 28 29 30 30 30 30 30 30 30 30 30 31 32 32 32 30 29 28 27 27 25 24 23 23 23 22 22 21 21 21 20 19 19 18 18 18 18 18 16 16 15 15 14 14 14 15 15 14 13 13 13 13
23 24 24 24 23 24 25 27 28 28 27 27 27 27 27 27 26 25 25 25 24 23 23 25 25 25 26 27 27 26 26 28 29 29 31 32 31 31 31 32 32 31 31 32 32 34 35 34 32 31 30 29 28 27 25 24 24 24 23 23 22 21 22 21 20 19 18 19 20 20 18 17 17 16 16 15 15 15 15 16 15 15 14 14 14
23 24 25 25 25 25 26 27 29 29 29 29 29 28 28 28 27 26 25 25 25 24 23 24 25 25 26 27 27 28 28 29 31 32 33 33 33 33 33 32 33 32 32 33 33 34 36 37 35 33 31 30 29 28 27 26 25 24 24 24 22 22 22 21 20 19 19 20 20 20 20 19 18 17 17 16 16 16 16 17 17 16 16 15 15
24 24 25 26 26 27 27 28 29 29 30 30 30 29 28 28 27 26 24 24 25 24 23 24 25 25 26 27 27 28 29 29 31 33 35 34 34 36 35 34 33 32 32 34 34 32 34 38 38 35 32 30 29 29 28 27 26 25 25 24 23 23 22 22 21 21 21 21 20 20 20 19 19 18 18 17 17 16 17 17 18 18 17 16 16
24 25 26 26 27 28 28 28 28 29 30 30 30 29 28 28 27 26 25 24 25 25 24 25 26 26 27 28 27 28 29 29 30 33 35 34 33 35 35 35 35 33 32 35 36 33 32 36 39 36 32 30 29 30 28 27 26 26 26 25 24 23 23 23 23 22 23 23 22 21 19 19 19 19 19 18 17 17 17 18 18 18 18 17 17
25 25 26 27 27 28 29 29 29 29 29 30 30 30 29 28 28 27 26 26 26 27 26 26 27 27 28 29 29 29 29 30 31 33 36 36 34 33 35 36 35 34 33 34 37 36 33 33 37 34 29 30 30 29 29 28 27 27 26 26 25 24 24 24 24 24 24 24 24 24 21 20 20 19 19 19 18 18 18 18 19 19 19 18 18
26 26 27 28 28 29 29 30 30 30 30 30 30 30 30 29 29 28 28 28 28 28 27 27 28 29 30 31 31 31 31 31 33 35 37 37 36 34 34 36 36 35 33 33 36 37 33 30 36 33 28 30 31 29 29 28 27 27 27 27 26 25 25 25 25 25 25 25 25 25 23 21 20 19 20 19 19 19 19 19 20 20 20 20 19
27 28 29 29 29 29 30 30 30 31 31 31 30 30 30 29 29 29 30 30 29 29 29 29 30 30 30 32 33 33 33 33 35 36 37 39 40 37 35 36 36 35 33 33 35 36 32 29 32 32 29 30 31 29 28 27 27 28 28 28 27 27 27 27 26 26 26 26 26 25 24 22 20 20 20 20 20 19 19 20 21 21 21 21 20
29 29 30 31 31 31 31 31 31 31 31 31 31 30 30 30 30 31 31 31 31 30 30 30 30 31 32 33 33 34 35 35 36 37 38 40 40 38 36 36 36 35 34 34 34 34 33 31 31 32 30 31 32 30 29 28 28 30 30 29 29 29 29 28 27 28 27 27 26 25 25 23 21 21 21 20 20 20 20 21 22 22 23 22 22
30 31 31 32 33 33 34 34 34 33 33 32 32 32 31 31 31 31 32 32 32 32 31 31 31 32 33 34 34 34 35 36 37 38 38 39 40 38 36 36 36 36 35 35 35 34 33 31 32 32 32 33 32 31 30 30 29 31 32 31 30 30 30 29 28 28 28 27 26 26 25 24 22 22 22 21 21 21 22 22 23 24 24 24 23
32 32 32 33 33 34 35 36 36 36 35 35 34 34 34 33 33 33 33 33 33 32 32 33 33 33 34 35 36 35 36 37 38 38 38 38 39 38 37 37 37 37 36 35 35 34 32 31 32 31 32 34 32 30 32 33 32 32 33 32 32 32 31 29 29 29 28 27 27 26 26 24 23 23 23 22 22 23 23 23 24 24 25 25 25
33 33 33 33 34 35 36 37 37 37 37 36 36 36 35 35 35 34 34 34 34 33 34 34 34 34 35 36 37 36 37 38 38 38 38 37 37 36 36 36 37 38 37 36 35 33 32 32 32 32 33 35 34 33 35 36 35 33 33 34 33 33 32 30 30 30 29 28 27 27 26 25 24 24 24 23 23 24 24 24 24 25 26 26 26
35 35 34 35 35 36 36 37 38 38 38 38 37 37 36 36 36 36 35 35 35 34 35 35 35 35 35 36 37 37 37 37 37 37 37 36 35 35 35 36 37 38 38 36 35 34 33 32 33 34 36 38 37 37 37 37 36 33 33 34 34 33 32 30 31 31 29 28 27 27 27 26 26 25 25 24 24 25 25 25 25 26 27 27 27
36 36 36 36 37 37 37 38 39 39 39 39 39 38 38 37 37 37 36 36 35 35 35 36 36 36 36 36 37 37 37 37 37 37 36 34 33 33 35 36 36 37 38 37 35 34 33 33 34 36 38 39 39 40 39 37 35 34 34 35 36 34 32 31 31 31 29 28 28 28 28 27 26 26 26 25 25 25 26 26 26 27 28 28 28
37 37 37 38 38 38 39 40 40 41 40 40 40 39 39 38 37 37 37 36 36 35 35 36 36 36 36 36 36 36 37 36 36 36 35 33 32 32 34 35 36 36 37 37 35 33 32 33 34 35 38 41 41 40 39 37 36 35 36 37 37 35 32 31 31 31 29 28 28 28 28 27 27 27 26 26 26 26 26 27 27 28 28 29 29
39 38 39 39 40 40 41 42 42 43 42 41 41 40 40 39 38 38 37 37 36 36 35 36 36 36 36 36 36 36 36 35 35 35 34 31 31 32 33 34 34 35 36 36 34 30 31 33 32 30 33 39 39 38 38 39 39 39 39 39 37 34 31 31 31 31 30 29 28 28 27 27 27 27 27 27 27 27 27 28 28 29 29 30 30
39 40 40 41 42 42 43 43 44 44 44 43 42 41 41 40 40 40 39 38 38 37 36 36 36 37 36 35 35 36 36 35 34 34 32 30 30 32 33 34 34 34 35 35 33 30 31 33 31 28 28 31 34 36 38 39 40 40 40 39 36 33 31 31 32 32 31 30 29 28 28 28 28 28 28 28 28 28 28 29 29 29 30 30 30
41 41 42 43 43 43 43 44 45 45 45 44 43 42 41 41 41 41 40 40 39 38 37 36 36 36 35 35 34 35 35 34 33 33 31 29 30 31 33 34 34 34 35 36 34 32 32 32 31 28 26 26 28 31 33 34 36 38 38 36 34 32 32 33 33 33 32 31 30 29 29 29 29 29 29 28 28 29 29 29 30 30 30 31 31
42 43 43 43 43 43 43 43 44 44 44 44 43 42 42 41 40 41 41 40 39 38 37 36 35 35 35 34 34 34 34 33 32 32 30 29 30 31 32 34 35 35 36 38 36 33 34 34 32 29 27 25 26 27 29 31 33 35 35 34 33 32 33 34 34 34 33 32 31 30 30 30 30 30 30 29 29 30 30 30 30 30 31 31 32
44 44 44 44 43 43 43 43 43 44 43 43 43 42 42 41 40 40 40 40 39 38 36 35 34 34 34 34 33 33 33 33 32 30 29 28 29 31 32 33 34 35 38 40 38 35 35 35 34 31 28 27 29 29 30 32 33 33 33 33 33 32 32 33 34 35 34 33 32 31 30 31 31 31 31 30 30 31 31 31 31 31 31 32 32
44 44 44 44 44 44 44 43 43 43 43 43 42 42 42 42 41 40 40 40 39 38 36 35 34 34 34 33 33 33 33 32 31 30 29 29 29 31 32 33 33 35 38 39 38 37 37 36 35 33 30 30 31 32 32 32 33 33 33 33 33 32 32 33 34 35 35 34 32 31 31 31 31 31 31 31 31 31 31 31 31 31 32 32 32
45 45 45 44 44 44 44 44 44 43 43 43 42 42 42 42 42 42 41 40 40 38 37 36 35 35 35 35 34 33 33 32 31 30 29 28 29 31 32 33 33 34 37 39 38 38 38 37 35 34 33 32 33 34 34 34 34 34 34 33 33 32 32 33 34 35 35 35 34 33 32 32 32 32 32 31 31 31 31 32 31 31 32 32 32
45 45 44 44 44 44 45 45 45 45 44 43 43 43 43 43 43 44 43 42 41 40 39 38 37 36 36 36 36 34 34 33 32 30 29 28 29 31 32 33 33 34 36 38 38 39 39 38 37 37 35 34 35 36 36 36 36 36 35 34 34 33 33 35 35 34 34 35 36 35 34 33 33 33 32 31 31 31 31 31 31 31 31 32 32
45 44 44 44 45 46 46 46 46 46 45 45 44 44 44 44 45 45 45 45 44 43 41 40 39 38 37 37 37 36 35 34 32 31 30 28 28 30 32 33 33 34 36 37 39 40 40 39 38 38 37 36 37 38 38 39 38 37 35 34 34 34 34 35 34 34 35 36 37 37 35 35 34 33 32 31 31 31 31 31 31 31 31 32 32
44 45 46 48 48 48 48 47 47 47 47 46 46 45 45 45 45 46 46 46 46 45 44 42 41 40 39 38 38 37 36 35 33 32 31 30 29 30 32 33 34 34 36 38 40 41 41 41 40 40 39 38 38 39 40 40 38 38 36 36 36 35 34 34 35 36 37 38 39 38 37 36 34 33 32 32 31 31 31 32 32 32 32 32 32
46 47 49 49 49 49 49 49 49 49 49 49 49 49 48 48 47 47 48 48 48 47 46 45 44 42 41 40 39 38 37 36 34 33 33 32 30 30 31 33 34 34 35 37 41 43 43 43 43 42 41 39 38 40 41 40 40 41 39 38 38 37 36 36 38 39 39 39 38 38 37 36 34 33 32 32 31 31 31 32 33 33 34 34 34
48 49 49 49 49 50 51 52 52 53 53 53 53 53 52 52 51 51 51 51 51 50 49 48 47 45 44 42 41 40 39 37 36 35 34 33 32 31 31 32 33 34 34 36 40 44 45 45 44 43 42 40 39 40 42 42 43 42 40 39 39 38 37 38 39 39 38 38 37 37 37 36 35 34 33 33 32 32 32 33 34 35 35 35 35
48 49 50 51 52 53 53 54 54 55 55 55 56 55 55 55 54 54 54 54 54 53 53 51 50 49 47 45 43 41 40 39 38 36 35 35 34 33 32 31 32 34 35 36 38 42 45 45 44 44 43 42 41 42 43 44 43 42 42 41 41 40 39 40 40 38 37 38 39 39 38 37 36 36 35 35 34 33 33 34 35 35 35 35 35
49 50 51 52 53 53 54 54 54 54 55 55 56 56 56 56 56 55 55 55 55 55 55 55 54 52 50 49 47 45 43 41 40 38 37 36 35 34 33 31 31 33 35 37 39 41 43 44 44 44 44 43 42 43 44 44 44 45 44 43 42 41 41 41 39 38 38 39 41 43 42 40 39 39 38 37 36 34 34 35 35 35 35 35 35
49 50 51 51 52 52 53 53 54 54 54 54 55 55 56 56 56 56 55 55 55 55 56 56 56 55 54 52 50 48 46 44 41 40 38 37 36 35 34 33 32 33 35 37 40 42 44 44 44 45 45 44 43 44 45 45 46 46 45 43 42 42 41 40 39 39 40 40 42 44 44 42 41 40 40 39 37 34 35 36 35 35 35 35 35
48 48 49 49 50 51 51 52 52 53 53 53 54 55 55 56 57 57 57 56 56 55 55 55 56 56 55 54 53 51 49 47 44 42 40 38 38 37 36 34 33 33 34 36 39 41 44 46 46 45 45 44 44 44 45 45 45 45 45 44 43 43 42 41 41 42 42 42 43 44 46 45 43 42 42 40 37 36 36 36 36 35 36 36 36
46 47 48 49 50 50 51 51 51 52 53 53 54 54 55 56 57 58 58 58 58 57 56 56 56 56 55 55 54 53 52 50 48 45 42 40 39 39 37 35 34 33 34 36 38 39 43 46 47 47 46 46 45 45 45 45 44 44 45 46 45 44 43 43 44 44 43 44 45 44 44 43 42 41 40 39 38 37 37 37 36 36 37 37 37
47 47 48 49 49 50 50 51 52 52 53 54 54 55 55 56 56 57 58 59 59 59 58 57 56 56 56 55 55 54 53 52 50 48 45 42 40 40 39 37 35 33 33 35 37 39 42 44 45 46 47 47 47 46 46 45 45 44 45 46 45 44 43 43 44 44 43 45 46 45 43 41 39 39 39 39 38 37 37 37 37 38 38 38 38
47 47 48 49 49 50 51 52 52 53 54 55 55 55 56 57 57 58 59 59 59 59 59 59 57 56 56 56 55 54 53 52 51 49 47 45 42 41 40 39 36 34 33 35 37 39 41 43 43 44 46 47 47 47 46 46 45 45 46 46 46 45 44 44 44 43 44 45 47 46 45 42 39 38 39 39 38 38 37 37 38 39 39 39 39
46 47 48 49 49 50 51 52 53 53 54 54 54 55 56 58 59 60 60 59 59 58 58 58 57 56 56 56 55 54 53 52 51 50 48 46 44 42 42 41 38 36 35 36 37 39 41 42 43 43 45 46 46 46 45 45 45 46 46 47 47 46 44 44 45 44 45 46 47 46 44 42 41 40 40 40 39 38 38 38 39 39 40 40 40
Wind_Direction
302 311 317 317 312 297 282 280 284 289 292 293 297 298 296 293 288 279 268 255 251 255 262 268 272 270 261 250 248 253 260 267 272 276 279 278 277 277 277 277 275 271 268 267 269 274 279 282 283 283 280 275 274 278 281 283 288 294 295 296 296 289 282 276 272 270 270 269 268 269 271 275 281 283 286 293 298 303 303 291 283 274 250 221 300
297 307 309 310 309 302 286 278 280 283 287 293 297 296 290 284 281 280 278 268 260 259 261 266 270 274 270 254 243 245 254 263 270 274 277 278 279 278 278 276 274 271 270 268 269 272 276 280 282 281 278 274 272 274 278 280 285 289 291 290 291 288 282 277 274 270 269 267 264 265 269 274 279 279 283 291 295 296 288 277 269 245 213 209 282
301 303 301 299 295 287 269 260 268 274 280 290 297 298 293 289 286 286 286 283 275 269 267 269 271 273 274 264 247 241 248 258 266 272 274 276 278 280 280 276 272 270 271 270 269 270 274 278 279 278 276 272 270 271 274 277 281 286 288 286 286 286 280 275 273 271 268 265 262 262 266 273 276 276 282 288 290 288 275 265 250 223 203 224 277
303 301 297 292 286 278 265 255 259 267 273 280 290 297 300 300 300 297 296 295 291 285 281 278 275 273 274 272 261 252 250 255 262 268 271 273 277 281 282 279 275 271 270 270 268 268 271 274 275 274 273 270 268 268 271 274 277 282 285 284 282 281 278 272 270 270 268 263 261 262 267 272 273 273 279 284 284 277 265 253 235 215 208 243 282
298 297 294 287 281 274 267 263 264 268 272 278 286 294 299 302 301 299 298 299 299 298 295 289 283 279 276 274 270 266 259 257 258 261 266 270 275 281 284 284 281 276 273 271 267 264 266 271 273 272 270 266 264 266 269 271 274 279 282 282 278 276 274 271 268 268 267 264 261 263 268 272 270 269 275 278 278 268 254 242 224 215 220 255 286
291 291 291 287 282 278 274 271 270 273 275 278 282 286 289 292 293 292 292 293 294 296 297 295 292 288 285 280 277 275 269 261 257 258 263 266 268 273 280 286 287 281 274 270 266 262 262 267 270 270 269 265 262 263 266 269 272 275 278 279 275 272 270 269 266 265 265 264 261 262 268 270 267 266 271 273 270 259 246 232 219 218 231 261 289
289 288 289 288 287 287 286 283 280 280 281 282 282 282 284 286 288 289 289 289 289 288 288 290 292 292 291 289 285 279 273 266 260 259 264 264 261 263 270 279 284 282 274 269 265 261 260 262 265 267 267 266 263 262 264 267 270 272 274 274 272 269 268 267 265 263 262 262 260 260 266 267 264 263 266 267 262 252 240 226 218 223 237 267 293
289 287 287 288 288 290 291 291 290 292 295 295 293 290 290 291 292 293 293 292 290 289 287 285 286 289 291 291 290 285 280 274 266 262 265 263 258 260 265 266 272 277 274 269 265 262 261 262 263 265 266 265 263 261 262 265 267 270 271 271 270 268 266 265 264 262 260 259 258 258 262 263 260 260 262 261 253 243 233 222 221 226 240 267 291
285 281 282 284 285 286 287 290 296 304 307 304 301 299 299 300 300 299 296 294 292 291 290 288 285 285 286 289 291 290 288 284 277 269 267 266 262 262 261 259 265 274 273 267 264 261 260 262 264 265 266 264 262 261 260 261 263 266 269 271 270 267 265 264 263 261 258 257 256 256 258 257 257 257 257 253 244 235 225 219 221 226 241 262 269
282 279 279 281 282 282 284 291 302 307 303 300 301 302 302 299 296 293 291 290 290 291 292 292 289 285 283 282 283 287 290 291 289 281 274 271 270 266 259 254 258 267 271 266 260 259 259 260 262 264 266 265 262 260 258 258 258 262 266 270 270 268 265 263 262 258 255 254 253 254 254 253 254 254 253 248 240 231 222 217 220 224 236 245 222
282 281 282 284 284 283 287 295 301 297 293 296 301 303 302 299 298 295 292 289 288 290 292 293 292 288 284 280 278 279 284 288 291 289 282 275 272 271 264 256 255 260 265 262 254 254 259 259 260 261 264 265 262 259 257 255 254 257 262 267 269 268 266 263 260 254 250 250 251 252 251 250 250 251 250 245 237 230 221 216 218 221 228 228 198
282 282 284 288 289 289 292 297 294 289 290 296 299 299 300 302 302 301 299 295 292 290 292 293 294 292 290 289 286 282 280 282 285 287 286 282 277 274 268 259 255 256 259 259 253 251 255 259 258 259 261 264 263 259 255 252 250 253 259 263 265 266 264 261 257 251 247 248 249 250 249 247 248 248 246 242 236 230 222 217 217 218 221 217 193
285 285 286 289 292 293 295 295 290 288 289 293 294 294 294 296 295 293 294 296 296 294 294 294 294 292 291 291 291 289 285 283 284 284 282 282 281 278 271 261 256 255 254 255 254 253 254 255 256 258 259 262 262 258 253 250 248 250 256 260 262 262 260 256 253 250 248 247 247 248 247 245 244 246 244 239 234 229 223 218 217 217 216 212 195
287 287 288 290 292 294 294 292 291 291 292 293 295 292 290 292 292 289 287 291 293 293 293 293 292 289 287 289 291 291 290 287 284 281 280 280 281 283 281 270 263 264 261 255 253 256 257 253 253 256 257 259 260 258 252 248 247 249 253 258 261 261 257 254 251 250 249 248 247 246 245 243 241 241 240 237 233 228 224 220 217 217 214 211 199
291 290 290 290 291 292 292 292 293 295 296 297 297 295 293 292 292 290 287 288 289 289 291 293 292 289 288 291 291 291 293 290 283 279 279 281 281 281 281 277 273 271 269 261 256 260 261 254 250 252 253 254 256 256 252 248 247 248 252 256 259 259 256 252 250 250 249 248 248 246 243 241 239 238 237 234 232 229 225 221 219 218 214 211 205
297 295 293 292 292 292 292 292 294 296 298 299 298 296 295 293 293 292 291 291 290 289 290 291 292 292 292 292 290 291 292 288 285 283 279 278 277 276 276 276 276 272 269 266 262 263 262 253 248 249 251 252 253 253 251 248 247 248 250 253 255 257 255 250 248 249 249 246 245 244 242 240 238 236 235 233 231 230 226 223 221 220 216 213 210
301 299 296 294 293 292 292 293 295 297 298 298 296 294 293 293 294 294 294 294 292 291 291 291 292 293 294 293 292 293 291 286 285 285 281 277 275 274 273 272 272 272 271 268 263 261 259 251 246 246 249 251 251 251 249 247 247 247 248 250 252 254 253 249 247 248 248 246 242 241 240 240 239 235 234 232 231 230 228 226 224 223 220 215 214
301 300 299 296 294 292 292 292 294 296 297 296 295 293 293 293 293 293 293 293 292 292 292 292 293 294 293 293 294 295 290 285 284 282 280 280 277 274 272 271 271 270 270 270 264 257 254 248 242 245 248 249 249 248 247 246 246 247 247 248 250 251 250 247 247 246 247 247 244 241 238 239 239 235 233 232 230 229 228 227 226 226 224 220 218
299 299 299 299 297 295 293 293 294 296 297 296 295 294 294 293 292 292 292 292 292 293 293 293 294 295 294 293 294 294 291 288 286 282 279 278 278 275 271 269 269 269 269 269 264 257 254 247 240 242 245 244 246 246 245 245 245 247 246 247 248 247 245 245 245 243 243 246 246 242 237 236 237 234 232 231 230 229 228 227 227 227 228 225 223
299 299 299 299 299 298 297 295 295 296 296 296 296 295 294 292 291 291 292 292 292 294 294 294 295 296 296 295 295 295 293 292 289 286 282 277 275 274 271 267 266 266 267 268 267 263 259 249 239 239 242 241 243 244 244 244 244 246 246 246 245 243 241 242 243 240 238 242 244 241 236 234 235 234 232 231 230 230 229 228 228 228 229 229 227
299 299 299 299 299 299 298 297 297 296 295 295 295 295 294 291 290 290 291 291 292 293 293 294 296 296 296 296 296 295 293 293 292 290 287 281 275 272 270 267 264 263 263 265 268 267 266 254 240 237 241 242 243 243 244 244 243 244 244 243 242 239 238 240 241 239 236 238 240 240 238 234 233 234 233 232 232 231 231 231 230 230 230 231 230
297 298 298 299 299 299 299 299 298 297 297 297 296 295 294 292 291 290 290 290 291 292 292 293 293 294 294 295 295 294 293 293 292 290 288 285 279 272 268 267 264 261 259 262 267 268 269 255 237 235 243 244 244 243 243 244 243 242 241 240 239 237 236 239 240 239 236 236 238 241 241 237 233 234 235 234 233 233 233 233 233 233 232 232 232
297 297 298 299 299 300 300 300 300 300 300 299 298 296 294 291 289 288 288 289 290 291 291 291 291 291 293 294 295 295 294 294 292 290 288 286 281 273 267 265 262 259 258 261 264 268 272 255 235 235 244 245 244 242 241 244 245 243 241 238 237 236 236 238 239 239 237 237 238 241 242 238 235 235 236 236 235 234 233 234 235 234 234 233 234
295 296 297 298 299 300 300 300 300 300 300 299 297 295 293 289 286 285 286 287 288 288 289 289 289 290 292 293 294 295 296 295 292 290 288 286 281 275 268 264 260 257 256 257 260 264 271 263 245 240 241 242 244 241 241 244 244 243 240 237 237 236 235 237 238 238 236 236 237 239 240 237 235 236 237 237 236 235 234 234 235 235 235 236 236
292 293 294 296 297 299 299 299 299 299 299 298 296 294 292 288 284 283 284 285 286 287 288 287 287 289 290 290 292 293 295 295 293 291 290 287 282 276 269 263 259 256 253 253 255 258 264 265 261 253 243 241 244 243 243 243 242 242 239 237 237 236 235 236 236 236 234 233 233 235 237 237 236 237 237 238 237 236 236 236 235 236 237 238 238
293 292 293 294 295 297 298 299 300 300 300 298 296 295 293 289 286 284 284 285 286 288 288 288 288 288 288 289 291 292 293 294 294 293 291 286 280 274 268 262 259 257 254 252 251 254 258 260 263 258 243 238 243 245 245 243 241 242 239 237 237 237 236 235 234 233 232 231 231 232 234 235 236 237 238 238 238 237 237 237 237 237 238 239 240
295 294 294 294 294 296 297 298 300 301 301 300 298 296 295 293 291 288 287 286 287 288 288 288 288 288 289 290 291 292 293 293 294 294 292 286 279 274 268 262 258 255 253 252 250 250 253 254 257 255 244 239 243 245 245 243 241 241 239 237 238 238 238 235 232 231 230 230 230 231 233 235 235 237 238 239 239 239 238 238 238 239 238 239 241
297 296 295 295 295 295 296 297 299 300 300 299 298 296 295 293 292 290 289 288 288 288 288 288 289 289 290 291 292 293 293 293 294 295 294 287 278 272 268 263 259 255 251 251 250 248 250 251 253 253 247 245 246 244 244 244 242 240 237 236 236 237 236 234 232 231 230 229 230 231 233 234 235 237 238 240 240 240 240 239 239 240 240 240 241
297 297 296 296 296 295 295 296 297 298 298 298 296 295 294 292 291 290 290 289 289 289 289 289 290 290 290 291 292 294 294 294 295 296 295 287 277 270 267 263 260 256 251 249 249 248 248 248 250 251 248 247 246 244 244 245 241 234 232 234 235 235 234 233 232 231 231 230 230 232 233 233 235 236 238 239 240 241 241 241 241 241 241 241 241
298 297 297 296 296 295 295 295 296 296 296 296 296 295 293 292 291 291 290 290 290 289 290 290 290 290 291 291 292 294 295 295 296 297 294 285 276 270 267 263 260 257 253 249 247 247 248 249 250 250 248 245 244 243 243 245 239 228 226 232 235 235 233 232 232 232 231 231 231 232 233 233 234 236 237 238 239 241 242 242 242 242 242 242 241
300 298 297 296 295 295 295 295 295 295 295 295 295 294 292 291 291 290 290 289 289 289 289 290 290 290 291 292 293 293 295 296 297 298 294 284 276 271 266 262 260 258 253 249 248 246 246 249 252 253 249 243 242 241 240 242 237 225 222 228 232 232 232 231 231 231 231 231 231 232 234 235 235 236 237 238 239 241 242 243 243 243 242 242 242
301 300 298 297 296 295 295 294 294 294 294 293 293 292 291 290 289 289 289 289 289 290 290 290 290 291 291 292 293 293 294 296 297 298 294 284 275 269 264 260 259 258 252 248 247 244 242 246 252 257 252 242 239 238 237 238 233 223 220 224 229 231 232 231 230 230 231 231 231 233 235 236 238 238 238 238 239 240 242 243 243 243 243 243 243
301 300 299 297 297 296 295 294 293 293 293 292 292 291 290 290 289 289 288 288 289 290 291 291 290 290 290 291 292 292 293 295 297 298 293 284 275 269 264 261 258 256 250 246 244 241 241 245 250 256 254 243 238 238 238 235 227 220 219 224 228 231 231 231 230 229 230 232 232 234 236 239 240 241 240 240 239 240 241 242 243 244 244 243 243
301 300 299 298 297 295 294 294 293 292 292 292 292 291 290 290 289 289 289 289 290 291 292 292 290 290 289 290 291 291 292 294 296 298 293 284 276 271 266 262 259 253 247 244 241 237 239 245 247 250 250 244 239 236 232 228 223 220 221 224 228 230 230 231 231 229 230 231 233 236 238 241 242 243 242 241 240 239 240 241 243 243 244 244 244
300 300 299 297 296 295 294 293 293 292 292 292 291 291 291 290 289 289 289 289 291 292 293 292 291 290 289 289 290 291 292 293 295 297 293 284 278 274 269 263 258 252 245 241 239 236 238 244 245 245 243 240 236 229 223 223 223 222 223 225 226 227 229 231 230 229 229 231 233 237 240 243 244 244 243 242 240 240 239 240 242 243 244 244 244
300 299 298 297 296 295 294 294 293 293 293 292 292 292 291 290 289 289 289 290 291 292 292 292 291 290 288 288 289 290 291 292 294 296 292 284 278 275 271 264 258 251 244 240 239 237 239 243 243 240 236 236 234 227 223 225 225 224 223 224 225 226 229 231 231 230 230 231 234 239 242 244 244 245 244 243 241 239 239 240 241 242 243 244 244
299 298 297 297 296 295 294 294 293 293 293 293 293 292 292 291 290 289 289 290 290 291 291 291 290 289 288 288 288 289 290 290 292 294 292 285 276 271 269 264 259 253 246 240 237 237 238 239 239 237 233 233 234 232 230 231 231 227 224 223 225 228 230 231 231 231 231 232 236 241 245 245 244 245 244 243 240 239 239 240 240 242 243 244 244
299 298 297 297 296 296 295 294 294 293 292 292 292 292 292 291 291 290 289 289 289 290 290 289 289 288 287 288 288 288 289 289 290 291 292 288 279 272 267 263 259 255 248 240 235 235 236 236 237 237 235 233 234 234 234 233 232 229 225 223 226 230 231 231 232 233 233 233 236 241 244 244 243 243 243 241 239 239 239 239 240 241 242 243 244
298 298 297 297 298 298 297 296 295 294 293 293 292 292 292 291 291 290 290 289 289 289 288 288 287 287 287 287 287 288 288 287 287 288 290 288 282 275 269 263 259 255 250 242 236 235 236 236 237 238 236 233 233 234 233 231 230 229 226 225 227 229 230 232 233 234 234 234 236 240 242 242 242 243 243 242 240 240 241 241 241 242 242 243 244
298 298 298 299 300 299 299 298 297 296 295 294 293 293 292 292 291 291 290 289 289 288 288 287 286 286 286 286 286 286 286 285 285 285 286 286 283 276 270 264 259 255 250 243 237 236 237 236 236 237 235 233 234 234 232 230 230 230 229 229 229 229 230 233 235 235 234 233 235 238 240 241 242 244 244 242 241 242 243 243 243 243 244 244 245
298 299 300 301 301 300 299 299 298 298 297 296 295 294 293 293 292 291 291 290 289 288 287 287 286 285 284 284 284 284 284 284 282 282 283 283 282 278 272 265 258 254 250 243 238 238 238 236 235 236 234 234 235 233 231 230 229 228 228 228 229 229 230 232 234 235 234 234 234 237 239 241 242 244 244 243 242 242 243 243 244 243 243 244 244
299 299 300 301 301 301 300 300 300 299 299 298 297 296 295 294 293 292 291 291 290 289 288 287 286 285 283 282 281 281 281 281 280 279 279 280 281 279 276 269 260 253 250 245 240 239 238 236 235 235 235 235 234 232 230 230 228 227 226 225 227 229 230 231 231 232 234 235 236 237 240 242 244 244 244 244 243 243 244 245 245 245 244 243 242
299 300 301 301 302 301 301 301 300 300 299 298 297 296 295 294 293 292 291 290 289 288 288 287 286 285 284 282 280 279 278 278 277 276 276 277 277 278 276 272 264 254 248 246 243 240 239 237 235 235 236 235 232 229 229 229 229 229 227 226 228 230 230 232 233 234 236 239 239 238 239 243 244 243 243 244 244 243 244 245 245 245 244 244 244
302 302 303 303 303 302 302 301 300 300 299 298 297 295 294 293 291 290 289 288 287 286 286 285 285 284 283 282 280 278 276 276 275 274 274 274 274 275 274 272 267 258 249 246 245 241 239 238 236 235 236 235 232 229 227 227 229 230 229 228 229 230 230 231 233 234 237 241 241 239 238 241 241 240 240 243 244 244 244 244 245 246 246 246 245
304 304 304 303 303 303 302 302 301 301 300 300 299 298 296 295 293 291 289 287 285 284 283 282 282 281 281 280 279 278 276 274 273 272 271 271 271 272 272 270 266 260 253 248 247 245 241 239 237 236 235 234 232 230 228 227 229 230 230 229 229 230 230 231 232 233 236 239 240 239 239 240 239 238 239 242 244 245 245 246 247 247 248 247 246
305 305 305 305 305 304 304 304 304 303 303 303 302 301 300 298 296 294 292 290 287 284 282 280 279 278 277 277 276 276 275 273 271 270 269 268 268 269 269 269 265 261 255 250 247 246 243 241 239 237 235 234 232 230 228 228 229 230 229 228 229 231 231 231 233 234 235 237 239 239 240 240 240 239 239 241 245 247 246 247 249 249 249 249 248
306 306 306 306 306 306 306 306 306 306 305 305 304 303 302 301 299 297 295 292 289 286 283 280 278 276 274 273 272 272 272 271 270 268 266 265 265 266 266 266 265 262 258 254 250 246 243 241 239 236 234 233 231 229 229 230 230 229 227 226 227 230 230 229 231 233 234 236 239 240 240 239 239 239 239 241 246 248 247 249 250 250 251 251 250
307 308 308 308 308 307 307 307 306 306 305 305 304 303 302 301 300 299 297 294 291 288 284 281 278 275 273 271 269 268 267 267 267 266 265 262 261 262 263 263 263 261 259 256 254 249 243 240 238 235 232 232 231 229 228 229 229 229 228 226 226 228 228 228 230 233 233 234 237 241 242 241 238 237 238 243 248 249 248 250 250 250 251 251 252
309 309 308 308 308 307 307 307 306 306 306 305 304 303 303 302 301 300 298 296 293 290 286 282 278 274 271 269 267 265 263 263 263 263 262 260 258 258 259 260 260 260 257 255 254 250 245 240 238 235 232 231 231 229 228 227 228 228 228 228 228 228 229 230 232 234 235 236 237 239 242 242 238 235 238 244 247 247 247 249 250 251 251 252 253
309 309 309 308 308 308 308 307 307 307 307 307 306 306 305 304 303 302 300 297 294 291 287 283 279 274 270 267 265 263 260 259 258 258 258 257 255 254 255 256 256 256 255 253 251 249 245 241 238 236 233 231 230 230 228 228 228 228 228 228 228 228 229 230 232 234 235 237 239 240 241 242 240 238 241 245 246 246 248 250 251 252 253 254 255
309 309 309 309 309 309 310 310 310 310 310 309 309 309 308 307 306 304 302 299 295 291 287 283 279 274 270 266 262 260 258 255 254 253 253 253 252 251 251 252 252 251 251 251 249 246 244 241 240 238 234 231 230 230 230 230 229 228 227 228 229 229 228 230 231 232 234 236 239 241 240 239 239 240 243 245 246 246 247 249 250 251 252 254 256
Height
5832 5832 5832 5831 5830 5829 5828 5828 5827 5826 5825 5825 5824 5824 5823 5822 5821 5821 5820 5820 5820 5820 5820 5820 5820 5820 5820 5820 5819 5819 5818 5818 5818 5818 5817 5817 5816 5816 5816 5816 5816 5816 5816 5816 5815 5815 5814 5814 5814 5814 5813 5813 5813 5813 5812 5812 5811 5810 5810 5809 5809 5808 5808 5808 5807 5807 5807 5807 5807 5807 5807 5807 5807 5807 5807 5807 5807 5806 5806 5806 5806 5805 5805 5805 5805
5831 5831 5831 5831 5830 5829 5828 5827 5826 5826 5825 5824 5823 5823 5822 5821 5821 5820 5820 5819 5819 5819 5819 5818 5818 5817 5817 5817 5817 5817 5817 5817 5816 5816 5816 5815 5815 5814 5814 5814 5814 5814 5814 5814 5814 5813 5813 5813 5812 5812 5812 5812 5812 5812 5811 5811 5810 5810 5809 5808 5808 5808 5807 5807 5807 5806 5806 5806 5806 5806 5806 5806 5806 5806 5806 5806 5806 5806 5806 5805 5805 5805 5805 5805 5805
5831 5830 5830 5830 5830 5829 5828 5827 5826 5825 5824 5823 5822 5822 5821 5821 5820 5820 5820 5820 5819 5819 5818 5817 5817 5816 5815 5815 5815 5815 5815 5815 5814 5814 5814 5814 5813 5812 5812 5812 5812 5812 5812 5812 5812 5812 5812 5811 5811 5811 5810 5810 5811 5811 5810 5810 5809 5809 5808 5807 5807 5807 5807 5806 5806 5806 5806 5806 5806 5806 5806 5806 5806 5806 5806 5806 5806 5806 5805 5805 5805 5805 5805 5805 5805
5831 5830 5829 5829 5828 5828 5826 5826 5825 5824 5823 5822 5822 5821 5821 5821 5821 5820 5820 5820 5819 5819 5818 5817 5816 5815 5814 5814 5813 5813 5813 5813 5812 5812 5812 5812 5811 5811 5811 5810 5810 5810 5810 5810 5810 5810 5810 5810 5809 5809 5809 5809 5809 5809 5809 5809 5808 5808 5807 5807 5806 5806 5806 5806 5805 5805 5805 5805 5805 5805 5805 5805 5805 5805 5805 5805 5805 5805 5805 5805 5805 5805 5805 5805 5805
5830 5829 5828 5828 5827 5826 5825 5824 5824 5823 5823 5822 5822 5821 5821 5821 5821 5821 5821 5820 5819 5819 5818 5817 5816 5814 5813 5813 5812 5812 5812 5812 5811 5810 5810 5810 5810 5810 5809 5809 5808 5808 5808 5808 5808 5808 5808 5808 5808 5808 5808 5808 5808 5808 5808 5807 5807 5807 5806 5806 5805 5805 5805 5805 5805 5804 5804 5804 5804 5804 5804 5804 5804 5805 5805 5805 5805 5805 5805 5805 5805 5805 5805 5805 5805
5829 5828 5827 5827 5826 5825 5824 5823 5823 5822 5822 5822 5822 5821 5821 5821 5820 5820 5819 5819 5818 5818 5817 5816 5815 5814 5812 5812 5811 5811 5810 5810 5809 5809 5808 5808 5808 5808 5808 5807 5807 5806 5806 5806 5806 5806 5806 5806 5806 5806 5806 5806 5806 5806 5806 5806 5806 5806 5805 5805 5804 5804 5804 5804 5804 5804 5803 5803 5803 5803 5803 5803 5804 5804 5804 5804 5804 5804 5804 5804 5805 5805 5805 5805 5805
5828 5827 5826 5826 5825 5824 5823 5823 5822 5822 5822 5822 5821 5820 5820 5819 5819 5818 5818 5817 5816 5816 5815 5814 5813 5812 5811 5810 5810 5809 5808 5808 5807 5807 5807 5806 5806 5805 5805 5805 5805 5805 5804 5804 5804 5804 5804 5804 5804 5804 5804 5804 5804 5804 5804 5805 5805 5804 5804 5804 5803 5803 5803 5803 5803 5803 5803 5803 5803 5802 5802 5803 5803 5803 5803 5804 5804 5804 5804 5804 5805 5805 5805 5805 5805
5828 5826 5825 5825 5824 5824 5823 5822 5821 5821 5821 5821 5820 5819 5818 5817 5817 5816 5816 5815 5814 5813 5813 5812 5811 5810 5809 5808 5808 5808 5806 5806 5805 5805 5804 5804 5803 5803 5802 5802 5803 5802 5802 5802 5802 5802 5802 5802 5802 5802 5802 5802 5802 5802 5803 5803 5803 5803 5803 5802 5802 5801 5801 5801 5801 5802 5802 5802 5802 5802 5802 5802 5802 5803 5803 5803 5803 5803 5804 5804 5804 5805 5805 5805 5805
5827 5826 5825 5824 5823 5823 5822 5822 5821 5821 5820 5819 5818 5817 5817 5816 5815 5815 5814 5813 5812 5811 5810 5810 5809 5808 5808 5807 5807 5806 5805 5804 5803 5802 5801 5801 5801 5801 5801 5800 5800 5800 5799 5799 5800 5800 5800 5800 5800 5800 5801 5800 5800 5800 5801 5801 5801 5801 5801 5801 5801 5800 5800 5800 5800 5800 5800 5800 5800 5801 5801 5801 5802 5802 5802 5802 5802 5803 5803 5804 5804 5804 5805 5805 5805
5826 5826 5825 5824 5823 5822 5822 5822 5822 5820 5818 5817 5816 5816 5815 5815 5814 5813 5812 5811 5810 5809 5808 5807 5807 5806 5805 5805 5805 5804 5803 5802 5801 5800 5799 5799 5798 5798 5798 5798 5797 5797 5797 5797 5798 5798 5798 5798 5798 5798 5798 5798 5798 5798 5798 5799 5799 5800 5799 5799 5799 5799 5799 5799 5799 5799 5799 5799 5799 5799 5800 5800 5801 5801 5801 5801 5802 5802 5802 5803 5803 5804 5804 5805 5805
5825 5825 5824 5823 5822 5822 5822 5822 5820 5818 5816 5815 5815 5815 5813 5812 5811 5811 5810 5809 5808 5807 5806 5805 5804 5803 5802 5801 5801 5801 5800 5799 5799 5798 5797 5796 5796 5795 5795 5795 5795 5795 5795 5795 5795 5795 5796 5796 5796 5796 5796 5796 5796 5796 5796 5796 5797 5797 5797 5797 5798 5798 5797 5797 5797 5797 5797 5797 5798 5798 5799 5799 5800 5800 5800 5801 5801 5801 5802 5802 5803 5804 5804 5805 5805
5824 5823 5823 5822 5821 5821 5821 5821 5818 5816 5815 5815 5814 5813 5812 5811 5810 5809 5808 5807 5806 5805 5804 5803 5802 5801 5800 5799 5799 5799 5798 5797 5796 5796 5795 5794 5793 5793 5792 5792 5792 5792 5793 5792 5792 5793 5793 5794 5793 5793 5794 5794 5794 5794 5794 5794 5795 5795 5795 5795 5796 5796 5796 5796 5796 5796 5796 5796 5796 5797 5797 5798 5798 5799 5799 5800 5800 5800 5801 5802 5802 5803 5803 5804 5805
5822 5821 5821 5820 5820 5819 5819 5818 5816 5815 5814 5814 5813 5812 5810 5809 5808 5807 5806 5805 5803 5802 5802 5801 5800 5799 5798 5797 5796 5796 5795 5795 5794 5792 5792 5791 5790 5790 5789 5789 5789 5789 5790 5790 5790 5791 5791 5791 5791 5791 5791 5791 5791 5791 5791 5792 5792 5793 5793 5793 5794 5794 5794 5794 5794 5794 5795 5795 5795 5795 5796 5797 5797 5798 5798 5799 5799 5799 5800 5801 5801 5802 5803 5804 5804
5820 5819 5819 5819 5818 5817 5816 5815 5814 5813 5813 5812 5811 5810 5809 5808 5807 5805 5804 5803 5802 5800 5799 5798 5798 5796 5795 5794 5793 5792 5792 5792 5791 5789 5788 5788 5788 5788 5787 5786 5786 5786 5787 5787 5787 5788 5788 5788 5789 5789 5788 5789 5789 5789 5789 5789 5790 5791 5791 5791 5791 5792 5792 5792 5792 5793 5793 5794 5794 5794 5795 5795 5796 5797 5797 5798 5798 5798 5799 5800 5801 5801 5802 5803 5803
5818 5817 5817 5817 5816 5815 5813 5812 5812 5811 5810 5809 5809 5808 5806 5805 5804 5803 5802 5801 5800 5798 5796 5795 5795 5793 5793 5792 5791 5790 5790 5789 5788 5787 5786 5786 5785 5785 5784 5784 5783 5783 5783 5784 5785 5785 5785 5785 5786 5786 5785 5786 5786 5786 5786 5787 5788 5788 5789 5789 5789 5789 5790 5790 5791 5791 5792 5792 5793 5793 5793 5794 5795 5795 5796 5796 5797 5797 5798 5799 5799 5800 5801 5802 5802
5816 5815 5815 5814 5814 5813 5811 5810 5809 5808 5807 5806 5806 5805 5804 5803 5802 5801 5799 5798 5797 5795 5794 5793 5791 5790 5790 5789 5789 5788 5788 5786 5784 5785 5785 5784 5783 5783 5782 5782 5781 5780 5780 5781 5782 5782 5782 5783 5783 5783 5783 5783 5784 5784 5784 5785 5786 5786 5786 5786 5786 5787 5787 5788 5789 5789 5790 5791 5791 5791 5792 5793 5793 5794 5794 5795 5796 5796 5797 5797 5798 5799 5800 5800 5801
5813 5812 5812 5811 5811 5810 5809 5808 5806 5806 5805 5804 5803 5802 5801 5800 5799 5798 5796 5795 5794 5793 5791 5789 5788 5788 5787 5786 5785 5785 5786 5783 5781 5781 5781 5780 5780 5779 5779 5779 5778 5777 5777 5777 5778 5778 5779 5780 5780 5780 5780 5780 5781 5781 5781 5782 5783 5784 5784 5784 5784 5785 5785 5786 5787 5787 5788 5789 5789 5789 5790 5791 5792 5792 5793 5793 5794 5795 5795 5796 5797 5798 5798 5799 5800
5811 5810 5809 5809 5808 5808 5807 5806 5804 5803 5803 5802 5801 5800 5798 5797 5796 5794 5793 5791 5791 5790 5788 5786 5785 5785 5784 5783 5782 5781 5781 5780 5779 5778 5777 5776 5776 5775 5775 5775 5775 5775 5774 5774 5774 5774 5775 5776 5777 5777 5777 5777 5778 5778 5778 5779 5780 5781 5781 5781 5782 5782 5783 5784 5785 5786 5787 5786 5786 5787 5788 5789 5790 5791 5791 5792 5792 5793 5794 5795 5796 5797 5797 5798 5798
5809 5808 5807 5806 5806 5805 5804 5803 5802 5801 5800 5799 5798 5797 5795 5794 5792 5791 5790 5788 5787 5786 5786 5784 5782 5782 5780 5780 5779 5778 5777 5776 5775 5774 5773 5773 5772 5771 5772 5771 5771 5771 5771 5770 5770 5771 5771 5772 5773 5773 5773 5774 5775 5775 5775 5776 5777 5778 5778 5779 5779 5780 5781 5782 5783 5784 5784 5784 5784 5785 5786 5787 5788 5788 5789 5790 5790 5791 5792 5793 5794 5795 5796 5796 5797
5806 5806 5805 5804 5803 5802 5802 5801 5800 5798 5797 5796 5795 5794 5792 5791 5789 5788 5787 5785 5784 5783 5782 5781 5779 5778 5777 5776 5775 5774 5773 5772 5771 5769 5769 5769 5769 5767 5767 5767 5767 5767 5767 5766 5766 5766 5767 5767 5768 5769 5769 5770 5771 5772 5772 5773 5775 5775 5775 5776 5776 5777 5778 5779 5781 5782 5782 5782 5783 5783 5784 5785 5786 5786 5787 5788 5789 5789 5790 5791 5792 5793 5794 5794 5795
5803 5803 5802 5801 5800 5799 5798 5798 5797 5796 5795 5793 5792 5791 5789 5788 5786 5785 5784 5782 5781 5780 5779 5778 5776 5775 5774 5772 5772 5771 5769 5768 5767 5765 5764 5764 5765 5764 5763 5763 5763 5763 5763 5762 5762 5762 5762 5762 5763 5764 5765 5766 5768 5768 5769 5770 5772 5772 5772 5773 5773 5774 5775 5777 5778 5779 5779 5780 5780 5780 5781 5783 5783 5784 5785 5786 5787 5788 5788 5789 5790 5791 5792 5792 5793
5800 5800 5799 5798 5797 5796 5795 5794 5793 5793 5792 5790 5789 5788 5786 5784 5783 5782 5781 5779 5778 5777 5776 5775 5773 5772 5770 5769 5768 5767 5765 5764 5763 5761 5759 5759 5760 5760 5759 5758 5758 5759 5759 5758 5758 5757 5758 5757 5757 5759 5761 5762 5764 5765 5765 5766 5768 5769 5769 5770 5771 5771 5773 5774 5775 5776 5776 5777 5777 5778 5779 5781 5781 5782 5784 5784 5785 5786 5787 5788 5788 5789 5790 5790 5791
5797 5796 5795 5794 5793 5792 5791 5790 5789 5788 5787 5786 5785 5784 5782 5781 5780 5779 5778 5776 5775 5773 5772 5771 5769 5768 5767 5765 5764 5763 5761 5760 5759 5757 5755 5754 5754 5755 5755 5754 5753 5754 5754 5754 5754 5753 5754 5754 5754 5755 5757 5758 5760 5761 5762 5763 5765 5766 5766 5767 5768 5769 5770 5771 5772 5773 5774 5774 5775 5775 5777 5778 5779 5780 5781 5782 5783 5784 5785 5786 5786 5787 5788 5789 5789
5793 5792 5791 5791 5790 5789 5788 5786 5785 5784 5783 5782 5781 5780 5779 5778 5777 5776 5774 5773 5772 5771 5769 5768 5766 5765 5763 5761 5760 5758 5757 5756 5754 5752 5751 5749 5748 5749 5750 5749 5749 5749 5749 5750 5750 5750 5751 5752 5752 5752 5753 5754 5756 5757 5759 5761 5762 5762 5763 5764 5765 5766 5767 5768 5770 5771 5771 5772 5772 5773 5774 5775 5777 5778 5779 5780 5781 5782 5782 5783 5784 5785 5786 5786 5787
5790 5789 5788 5787 5786 5785 5784 5783 5782 5781 5780 5778 5777 5776 5775 5774 5773 5772 5770 5769 5768 5767 5766 5764 5763 5761 5759 5758 5756 5755 5753 5751 5750 5748 5746 5744 5743 5743 5745 5744 5743 5744 5744 5745 5745 5746 5747 5748 5749 5749 5749 5751 5752 5754 5756 5757 5758 5759 5760 5761 5762 5763 5764 5765 5767 5768 5768 5769 5770 5771 5771 5773 5775 5776 5777 5778 5779 5779 5780 5781 5782 5783 5783 5784 5785
5786 5785 5784 5783 5782 5780 5779 5778 5777 5776 5775 5774 5773 5772 5771 5770 5769 5768 5766 5765 5764 5763 5761 5760 5759 5757 5755 5753 5752 5751 5749 5747 5745 5743 5742 5740 5738 5738 5739 5739 5739 5739 5739 5740 5741 5742 5744 5745 5745 5745 5746 5747 5749 5751 5752 5753 5755 5756 5757 5758 5759 5760 5761 5762 5764 5765 5765 5766 5767 5768 5769 5770 5772 5773 5774 5775 5776 5777 5777 5778 5779 5780 5781 5782 5783
5782 5781 5780 5779 5777 5776 5774 5773 5772 5770 5770 5769 5767 5766 5765 5764 5763 5763 5762 5761 5760 5759 5757 5755 5754 5753 5751 5749 5747 5746 5744 5742 5740 5738 5737 5735 5733 5733 5734 5734 5734 5735 5735 5736 5736 5738 5740 5741 5741 5742 5743 5744 5745 5747 5748 5749 5751 5752 5753 5754 5755 5757 5758 5759 5761 5762 5763 5763 5764 5765 5767 5768 5769 5770 5771 5772 5773 5774 5775 5776 5776 5777 5778 5779 5780
5778 5777 5776 5775 5773 5772 5770 5769 5767 5766 5765 5764 5763 5761 5760 5759 5758 5757 5757 5756 5755 5754 5752 5751 5749 5748 5746 5744 5742 5741 5739 5737 5735 5733 5731 5730 5728 5728 5728 5729 5729 5730 5731 5731 5732 5734 5736 5736 5737 5738 5739 5740 5742 5743 5744 5745 5747 5748 5750 5751 5752 5753 5755 5756 5758 5759 5760 5760 5761 5763 5764 5765 5767 5768 5768 5769 5770 5771 5772 5773 5774 5775 5776 5777 5778
5774 5772 5772 5771 5769 5768 5766 5765 5763 5762 5761 5759 5758 5757 5756 5755 5754 5753 5752 5751 5750 5749 5747 5746 5744 5743 5741 5740 5738 5736 5734 5732 5730 5728 5726 5724 5724 5724 5723 5724 5725 5726 5727 5728 5729 5730 5731 5732 5733 5734 5735 5736 5737 5739 5740 5741 5742 5744 5746 5747 5748 5750 5751 5753 5755 5756 5757 5758 5759 5760 5761 5762 5764 5765 5765 5766 5767 5768 5769 5770 5771 5772 5773 5774 5775
5769 5768 5767 5766 5764 5763 5762 5761 5759 5758 5756 5755 5753 5752 5751 5750 5749 5748 5747 5746 5745 5744 5742 5741 5739 5738 5737 5735 5733 5731 5729 5727 5725 5723 5721 5719 5719 5719 5719 5719 5720 5722 5723 5724 5725 5726 5727 5727 5728 5729 5729 5730 5732 5734 5736 5737 5737 5740 5742 5744 5744 5746 5748 5750 5752 5753 5754 5755 5756 5757 5758 5759 5760 5761 5762 5763 5764 5765 5766 5767 5768 5769 5770 5771 5772
5765 5763 5762 5761 5760 5759 5757 5756 5755 5753 5752 5750 5749 5748 5746 5745 5744 5743 5742 5741 5740 5739 5738 5736 5734 5733 5732 5730 5728 5726 5724 5722 5720 5718 5716 5715 5714 5714 5714 5715 5716 5717 5718 5719 5720 5722 5723 5723 5723 5724 5724 5725 5727 5729 5731 5733 5734 5736 5739 5740 5740 5742 5744 5746 5748 5750 5751 5752 5753 5754 5755 5756 5757 5758 5759 5760 5760 5761 5762 5763 5764 5765 5766 5767 5768
5761 5759 5758 5757 5755 5754 5753 5751 5750 5749 5747 5746 5744 5743 5742 5740 5739 5738 5737 5736 5735 5734 5733 5731 5729 5728 5727 5725 5723 5721 5719 5718 5716 5713 5711 5710 5710 5709 5709 5710 5711 5712 5713 5714 5716 5718 5718 5718 5719 5719 5719 5720 5722 5725 5727 5728 5730 5733 5734 5735 5737 5738 5741 5743 5745 5746 5747 5748 5750 5751 5752 5753 5754 5755 5756 5756 5757 5758 5759 5760 5761 5762 5763 5764 5765
5757 5755 5754 5753 5751 5750 5748 5747 5745 5744 5743 5741 5740 5738 5737 5736 5734 5733 5732 5731 5730 5729 5728 5727 5724 5723 5722 5720 5719 5716 5714 5713 5711 5709 5707 5706 5705 5704 5705 5706 5706 5707 5708 5709 5712 5714 5714 5714 5715 5716 5716 5717 5719 5721 5723 5724 5726 5728 5730 5732 5733 5735 5737 5739 5741 5742 5744 5745 5746 5747 5748 5750 5750 5751 5752 5753 5753 5754 5755 5756 5758 5759 5760 5760 5761
5753 5752 5750 5749 5747 5745 5744 5742 5740 5739 5738 5736 5735 5733 5732 5731 5729 5728 5727 5726 5725 5724 5723 5721 5720 5718 5716 5715 5714 5712 5710 5708 5707 5704 5702 5701 5701 5701 5701 5701 5702 5703 5704 5705 5707 5709 5710 5711 5711 5712 5714 5715 5716 5717 5719 5720 5722 5725 5727 5728 5730 5732 5734 5735 5737 5738 5740 5741 5742 5744 5745 5746 5747 5748 5749 5749 5750 5751 5752 5753 5754 5755 5756 5757 5758
5749 5747 5745 5744 5742 5740 5739 5737 5735 5734 5732 5731 5729 5728 5727 5726 5724 5723 5721 5720 5720 5719 5717 5716 5714 5713 5711 5710 5709 5707 5705 5704 5702 5700 5698 5697 5697 5697 5697 5697 5697 5698 5699 5700 5703 5705 5706 5707 5708 5709 5711 5713 5714 5715 5716 5717 5719 5721 5724 5725 5727 5729 5730 5731 5733 5735 5736 5737 5739 5740 5741 5742 5744 5745 5746 5746 5746 5747 5748 5749 5750 5751 5752 5753 5754
5744 5742 5740 5739 5737 5735 5733 5732 5730 5728 5727 5725 5724 5722 5721 5720 5719 5717 5716 5715 5714 5713 5712 5711 5709 5708 5706 5705 5704 5703 5701 5699 5698 5696 5694 5693 5693 5693 5693 5693 5693 5694 5695 5696 5698 5701 5702 5702 5704 5706 5708 5710 5711 5712 5713 5714 5716 5718 5721 5722 5723 5726 5727 5728 5730 5731 5732 5734 5735 5736 5738 5739 5740 5741 5742 5743 5743 5743 5744 5745 5746 5747 5748 5749 5750
5738 5736 5735 5733 5731 5729 5728 5726 5725 5723 5722 5720 5718 5716 5715 5713 5713 5712 5711 5709 5708 5707 5706 5705 5704 5703 5701 5700 5699 5698 5696 5695 5693 5692 5690 5689 5689 5689 5689 5689 5689 5689 5690 5692 5694 5696 5697 5698 5700 5702 5704 5706 5707 5709 5710 5711 5712 5714 5717 5719 5720 5722 5724 5725 5726 5727 5728 5730 5732 5733 5734 5735 5737 5738 5738 5739 5739 5740 5740 5741 5742 5743 5744 5745 5746
5732 5731 5729 5727 5725 5724 5722 5720 5719 5718 5716 5714 5713 5711 5709 5707 5706 5705 5704 5704 5703 5702 5701 5700 5699 5697 5696 5695 5694 5693 5691 5690 5689 5687 5686 5685 5684 5684 5685 5685 5685 5685 5685 5687 5689 5690 5692 5694 5696 5697 5700 5702 5704 5705 5706 5707 5708 5710 5712 5714 5716 5718 5720 5720 5721 5723 5724 5727 5728 5729 5731 5732 5733 5734 5734 5735 5736 5736 5737 5737 5738 5739 5740 5741 5742
5727 5725 5723 5722 5720 5718 5716 5715 5713 5712 5710 5709 5707 5705 5703 5702 5700 5699 5698 5697 5696 5696 5695 5694 5693 5692 5691 5689 5689 5688 5686 5685 5684 5683 5681 5680 5680 5680 5680 5680 5681 5681 5681 5682 5684 5686 5688 5690 5691 5693 5696 5698 5700 5701 5702 5703 5704 5705 5708 5710 5712 5715 5716 5716 5718 5719 5721 5723 5724 5725 5726 5728 5729 5730 5731 5732 5732 5733 5733 5734 5735 5736 5737 5738 5739
5722 5720 5718 5716 5714 5713 5711 5709 5707 5706 5704 5702 5701 5700 5698 5696 5694 5692 5691 5690 5690 5689 5688 5688 5687 5686 5685 5684 5683 5682 5681 5680 5679 5678 5677 5676 5675 5675 5675 5676 5676 5676 5677 5678 5679 5681 5683 5685 5686 5688 5691 5694 5696 5697 5698 5698 5701 5703 5705 5707 5709 5711 5712 5713 5714 5716 5717 5718 5719 5721 5722 5723 5725 5726 5727 5728 5729 5729 5730 5731 5731 5732 5733 5734 5735
5718 5715 5713 5710 5708 5707 5705 5703 5701 5699 5698 5696 5694 5693 5692 5690 5688 5686 5685 5683 5683 5682 5682 5681 5680 5680 5679 5678 5677 5676 5676 5674 5673 5673 5672 5671 5671 5671 5670 5670 5671 5671 5672 5673 5675 5676 5678 5680 5682 5684 5686 5689 5691 5692 5693 5695 5698 5700 5701 5703 5704 5706 5708 5710 5711 5711 5712 5713 5715 5717 5718 5720 5721 5723 5724 5725 5725 5726 5726 5727 5728 5728 5729 5730 5731
5713 5710 5708 5705 5703 5701 5699 5697 5695 5693 5691 5689 5687 5686 5685 5684 5682 5680 5678 5677 5675 5675 5675 5674 5673 5673 5673 5672 5671 5670 5670 5669 5668 5667 5667 5666 5666 5665 5665 5665 5666 5666 5667 5668 5670 5671 5673 5674 5677 5679 5681 5684 5686 5687 5689 5692 5693 5694 5695 5697 5699 5701 5703 5704 5705 5706 5708 5709 5711 5714 5715 5716 5718 5719 5720 5721 5721 5722 5723 5724 5724 5725 5725 5726 5727
5707 5705 5703 5700 5698 5696 5693 5691 5689 5686 5684 5682 5680 5679 5677 5676 5675 5673 5672 5670 5668 5667 5667 5667 5666 5665 5665 5665 5664 5664 5664 5663 5663 5662 5661 5661 5661 5660 5660 5660 5660 5661 5662 5663 5665 5666 5667 5669 5672 5674 5676 5679 5681 5683 5685 5686 5687 5689 5691 5693 5694 5696 5698 5699 5700 5702 5704 5706 5708 5710 5710 5712 5714 5715 5716 5717 5717 5718 5719 5719 5720 5720 5721 5722 5723
5702 5700 5697 5695 5692 5690 5687 5685 5682 5679 5677 5674 5672 5670 5669 5667 5666 5665 5664 5662 5661 5660 5659 5658 5658 5658 5658 5657 5657 5657 5657 5656 5656 5656 5656 5655 5655 5655 5655 5655 5655 5656 5656 5658 5659 5661 5662 5663 5666 5668 5671 5673 5675 5677 5679 5681 5683 5685 5687 5688 5690 5691 5693 5694 5696 5699 5701 5702 5703 5704 5705 5707 5709 5710 5711 5712 5713 5714 5715 5715 5715 5716 5717 5718 5719
5697 5694 5691 5689 5686 5683 5680 5678 5675 5673 5670 5667 5664 5662 5660 5658 5657 5656 5654 5653 5652 5651 5650 5649 5649 5649 5650 5650 5649 5649 5649 5650 5650 5650 5649 5649 5649 5649 5650 5650 5650 5651 5651 5653 5654 5655 5656 5658 5660 5662 5665 5667 5670 5672 5674 5676 5677 5679 5681 5684 5685 5686 5688 5690 5692 5696 5697 5697 5698 5699 5700 5702 5704 5705 5707 5707 5708 5709 5710 5710 5711 5712 5713 5714 5714
5692 5689 5686 5683 5680 5677 5674 5671 5669 5666 5663 5660 5657 5654 5652 5649 5647 5646 5645 5643 5642 5641 5640 5640 5640 5640 5640 5641 5641 5641 5641 5642 5642 5643 5643 5643 5643 5643 5644 5644 5645 5645 5646 5648 5649 5650 5651 5652 5654 5656 5659 5661 5664 5666 5668 5670 5671 5672 5675 5679 5681 5682 5684 5687 5689 5691 5692 5692 5693 5695 5696 5698 5700 5701 5702 5702 5703 5705 5706 5706 5707 5708 5709 5709 5710
5686 5684 5681 5678 5675 5672 5669 5666 5663 5660 5657 5654 5651 5647 5644 5641 5638 5636 5634 5633 5632 5631 5630 5630 5629 5630 5630 5631 5632 5632 5633 5633 5634 5635 5636 5636 5637 5637 5637 5638 5639 5640 5641 5642 5643 5644 5645 5647 5648 5651 5653 5655 5657 5660 5662 5664 5666 5668 5670 5673 5675 5676 5679 5682 5683 5684 5685 5686 5688 5689 5691 5692 5694 5696 5697 5698 5699 5700 5701 5702 5704 5704 5705 5705 5705
5681 5678 5676 5673 5669 5666 5664 5660 5657 5654 5651 5647 5644 5641 5638 5634 5631 5627 5625 5623 5621 5620 5619 5619 5618 5618 5619 5620 5621 5622 5624 5625 5625 5627 5628 5629 5630 5630 5631 5632 5633 5634 5635 5635 5636 5638 5639 5641 5642 5645 5647 5649 5651 5653 5656 5658 5661 5663 5665 5667 5669 5671 5673 5676 5677 5678 5679 5681 5682 5684 5686 5687 5689 5691 5692 5693 5694 5696 5697 5698 5699 5700 5700 5701 5701
5676 5673 5671 5668 5665 5661 5658 5655 5651 5648 5644 5641 5637 5634 5630 5627 5623 5620 5616 5613 5610 5609 5607 5607 5607 5607 5607 5608 5610 5611 5613 5615 5616 5618 5619 5621 5622 5623 5624 5625 5626 5627 5628 5629 5630 5632 5633 5635 5637 5639 5641 5643 5645 5647 5650 5652 5655 5658 5660 5662 5664 5666 5668 5670 5671 5673 5675 5675 5676 5679 5681 5682 5684 5686 5687 5688 5690 5691 5692 5694 5694 5695 5696 5696 5697
5671 5668 5666 5663 5659 5656 5653 5649 5645 5641 5637 5633 5630 5626 5622 5618 5615 5611 5607 5603 5600 5598 5596 5595 5594 5595 5595 5596 5598 5600 5602 5604 5606 5608 5610 5612 5614 5615 5617 5619 5620 5621 5622 5623 5625 5626 5627 5629 5631 5633 5635 5638 5640 5641 5644 5646 5649 5652 5655 5657 5658 5660 5662 5664 5666 5669 5670 5670 5671 5673 5676 5678 5680 5681 5683 5684 5685 5686 5688 5689 5689 5690 5691 5691 5692
5667 5664 5661 5657 5654 5650 5647 5643 5639 5635 5630 5626 5622 5618 5614 5610 5605 5601 5597 5593 5590 5587 5584 5582 5582 5582 5583 5584 5586 5588 5590 5593 5596 5598 5601 5603 5605 5607 5609 5611 5613 5615 5616 5618 5620 5621 5622 5624 5625 5627 5629 5631 5634 5636 5638 5640 5643 5645 5649 5651 5652 5654 5656 5658 5661 5663 5664 5666 5667 5669 5671 5674 5675 5677 5678 5679 5680 5681 5683 5684 5684 5685 5686 5686 5687